Regional Weather Roundup
Issued by NWS Sioux Falls, SD

Home | Current Version | Previous Version | Graphics & Text | Print | Product List | Glossary Off
Versions: 1 2 3 4 5 6 7 8 9 10 11 12 13 14 15 16 17 18 19 20 21 22 23 24 25 26 27 28 29 30 31 32 33 34 35 36 37 38 39 40 41 42 43 44 45 46 47 48 49 50

000
ASUS43 KFSD 271202
RWRFSD

WEATHER ROUNDUP FOR SE SOUTH DAKOTA/SW MINNESOTA/NW IOWA
NATIONAL WEATHER SERVICE SIOUX FALLS SD
700 AM CDT SUN MAY 27 2018

NOTE: "FAIR" INDICATES FEW OR NO CLOUDS BELOW 12,000 FEET WITH NO
SIGNIFICANT WEATHER AND OR OBSTRUCTIONS TO VISIBILITY.


SDZ038>040-050-052>070-271300-
SOUTHEAST SOUTH DAKOTA

CITY           SKY/WX    TMP DP  RH WIND       PRES   REMARKS
BROOKINGS      CLOUDY    67  53  61 SE10      29.80R
CHAMBERLAIN    PTCLDY    70  60  71 S6        29.75R
6HR MIN TEMP:  69; 6HR MAX TEMP:  75;

HURON          CLOUDY    71  57  61 S9        29.73R
6HR MIN TEMP:  70; 6HR MAX TEMP:  75;

MADISON        FAIR      64  57  77 S9        29.81R
MITCHELL       MOCLDY    71  58  63 S10       29.75S
6HR MIN TEMP:  68; 6HR MAX TEMP:  73;

SIOUX FALLS    CLOUDY    67  56  67 CALM      29.79R
6HR MIN TEMP:  62; 6HR MAX TEMP:  69;

WINNER         FAIR      74  54  49 S15G23    29.74R
YANKTON        CLEAR     67  58  72 E5        29.79R
$$

MNZ071-072-080-081-089-090-097-098-271300-
SOUTHWEST MINNESOTA

CITY           SKY/WX    TMP DP  RH WIND       PRES   REMARKS
FAIRMONT       CLOUDY    65  58  78 S5        29.82R
JACKSON        CLOUDY    68  54  60 S5        29.83S
LUVERNE        CLOUDY    64  54  68 CALM      29.81R
MARSHALL       CLOUDY    72  53  51 S10       29.80R
6HR MIN TEMP:  68; 6HR MAX TEMP:  72;

MONTEVIDEO     CLOUDY    66  55  68 S5        29.79R
PIPESTONE      CLOUDY    73  52  46 SE7       29.82R
REDWOOD FALLS  PTSUNNY   66  57  72 SE5       29.80R
TRACY          CLOUDY    76  51  42 S13       29.81R
WINDOM         CLOUDY    66  48  52 CALM      29.82R
WORTHINGTON    CLOUDY    73  54  51 S5        29.84R
$$

IAZ001>003-012>014-020>022-031-032-NEZ013-014-SDZ071-271300-
NORTHWEST IOWA

CITY           SKY/WX    TMP DP  RH WIND       PRES   REMARKS
CHEROKEE       CLOUDY    62  62  99 CALM      29.82S
DENISON        SUNNY     63  59  88 MISG      29.84R
ESTHERVILLE    CLOUDY    65  56  72 S6        29.81S
ORANGE CITY    CLOUDY    72  54  53 SE3       29.81S
SHELDON        CLOUDY    72  54  53 SE6       29.80S
SIOUX CITY     SUNNY     67  58  72 E5        29.80R
6HR MIN TEMP:  65; 6HR MAX TEMP:  75;

SPENCER        CLOUDY    65  60  84 CALM      29.82R
6HR MIN TEMP:  61; 6HR MAX TEMP:  68;

STORM LAKE     CLOUDY    75  50  41 S5        29.83S
$$

ABBREVIATIONS USED IN REMARKS
   TC - TEMPERATURE IN CELSIUS
  WCI - WIND CHILL INDEX
   HX - HEAT INDEX
  VSB - VISIBILITY





USA.gov is the U.S. government's official web portal to all federal, state and local government web resources and services.